"Pseudo-MPEC" for C0E4CC5

Created 2022 Nov 26 23:22:05 UT using Find_Orb

Click here for an explanation of pseudo-MPECs

 
 Astrometry: 
     C0E4CC5* C2022 11 232bFE1pyVo:\5IWn7^[`P`WAGaH,nZH:ZYeY6Aw+5Yt^khPO#jZcjV00
     C0E4CC5  C2022 11 237_8R-xFAF;!%4;!eG7EAO6dY?A#y_njD`C+8iL^^(=dpY@\Z1[U:V00
     C0E4CC5  C2022 11 23KstjoQDTyAstrometry4R_1]QUc59E-X@RxTc3/#^]QNR)L`(;8BV00
     C0E4CC5  C2022 11 23LuM[8=O^JaTj9,D?-Y#De+PnX6PsNLy#5p=dTAKb1dn/@3Sj;ukfV00
     C0E4CC5 KC2022 11 23.42378 04 11 54.45 +23 43 31.3    ~BNB7 21.8 RoNEOCP291
     C0E4CC5 KC2022 11 23.43127 04 11 55.33 +23 43 46.0    ~BNB7 22.0 RoNEOCP291
     C0E4CC5 KC2022 11 23.43875 04 11 56.24 +23 44 00.9    ~BNB7 21.2 RoNEOCP291
     C0E4CC5 mC2022 11 24-(=Z0CZhwo^:3l5^TFH/B5LOYgn.2Z:wv%u0mrY+glw*Q#,S2(h8V00
     C0E4CC5 mC2022 11 24XGYLUl`K`^e322+lredacted;=L8:OCk,)x2fWDgjpw\VHCnJb[7V00
     C0E4CC5 mC2022 11 24ug]8mu-BclickrxNQG4=X2_H(\+8*(a/jBFec]XWXeS+=\-n)ufaV00
     C0E4CC5 mC2022 11 25-Kci-n[kPvAs`\7mJ]!U!]o@7[[x`Dgmm_Cy9rn%.+wVU[Wd6n_4V00
     C0E4CC5 mC2022 11 25=Aoo'9\O`9h*8[0O[r5YNDn+/*S5ihereg-d6F*9ujR=NjxforQTV00
     C0E4CC5 mC2022 11 25(2LqEU;9:$wnnA[U_LW+VJZFQuFPLT2^[)*6xw*WOxKp4ZU`7;puV00
     C0E4CC5 KC2022 11 26rMksW=MiVbL:RJk][@5,6I@FcXaYN6PF=A?t_G=o/i/bnTyOu461H21
     C0E4CC5 KC2022 11 268VWUhr5p/e=L,6explanation!E]:Gb#/0Xb_-POh`PD(H3yWRp^H21

Station data:
(291) LPL/Spacewatch II  (N31.961669 W111.599905)  US/Arizona.  Observers J.
   V. Scotti, R. S. McMillan. 1.8-m f/2.7 reflector + CCD.
(H21) Astronomical Research Observatory, Westfield  (N39.483054 W87.968270)
   US/Illinois.  Observer R. Holmes. Measurers S. Foglia, L. Buzzi, T.
   Linder, R. Holmes. 0.76-m f/3.0 astrograph + CCD0.81-m f/4.0 astrograph +
   CCD0.61-m f/4.5 astrograph + CCD0.40-m f/5.32 astrograph + CCD.
(V00) Kitt Peak-Bok  (N31.963125 W111.600190)  US/Arizona.  Observers T. A.
   Pruyne, B. M. Africano, E. J. Christensen, G. A. Farneth, D. C. Fuls, A.
   R. Gibbs, A. D. Grauer, H. Gröller, J. A. Johnson, R. A. Kowalski, S. M.
   Larson, G. J. Leonard, D. Rankin, R. L. Seaman, F. C. Shelly, K. W.
   Wierzchoś. 2.25-m reflector + CCD.

Orbital elements:  C0E4CC5
   Perihelion 2022 Nov 12.15159 +/- 0.185 TT =  3:38:17 (JD 2459895.65159)
Epoch 2022 Nov 26.0 TT = JDT 2459909.5   Earth MOID: 0.1444   Ma: 0.0483
M   4.93058763 +/- 0.10             (J2000 ecliptic)          AutoNEOCP
n   0.35603989 +/- 0.0115           Peri.  354.14013 +/- 0.17
a   1.97153099 +/- 0.0423           Node    56.32698 +/- 0.017
e   0.4248119 +/- 0.0108            Incl.    3.86767 +/- 0.07
P   2.77                   H 25.6   G  0.15   U  9.7
q 1.13400108 +/- 0.00314    Q 2.80906091 +/- 0.0815
From 15 observations 2022 Nov. 23-26; mean residual 0".19
Residuals in arcseconds: 
221123 V00  .03-  .04-    221123 291  .19-  .13+    221125 V00  .32+  .28-    
221123 V00  .06+  .13-    221123 291  .08+  .43+    221125 V00  .18+  .21-    
221123 V00  .07-  .27-    221124 V00  .11-  .24-    221125 V00  .44+  .15-    
221123 V00  .01-  .06-    221124 V00  .07+  .08-    221126 H21  .15-  .16+    
221123 291  .10-  .09+    221124 V00  .10+  .06-    221126 H21  .26-  .17+    

Ephemerides (geocentric):
Date (UTC) HH   RA             Dec           delta  r     elong  mag " sig PA
---- --------  ------------   ------------  ------ ------ -----  --- --------
2022 11 26 23  04 19 42.832   +25 38 23.90  .15827 1.1446 174.8 22.3 .500 161
2022 11 27 00  04 19 48.188   +25 39 40.96  .15834 1.1447 174.8 22.3 .510 161
2022 11 27 01  04 19 53.540   +25 40 57.93  .15841 1.1447 174.8 22.3 .520 162
2022 11 27 02  04 19 58.890   +25 42 14.80  .15848 1.1448 174.8 22.3 .531 163
2022 11 27 03  04 20 04.236   +25 43 31.57  .15854 1.1449 174.8 22.3 .541 163
2022 11 27 04  04 20 09.579   +25 44 48.24  .15861 1.1449 174.8 22.3 .552 164
2022 11 27 05  04 20 14.918   +25 46 04.81  .15868 1.1450 174.8 22.3 .562 165
2022 11 27 06  04 20 20.255   +25 47 21.28  .15875 1.1450 174.8 22.3 .573 165
2022 11 27 07  04 20 25.588   +25 48 37.66  .15882 1.1451 174.8 22.3 .584 166
2022 11 27 08  04 20 30.918   +25 49 53.94  .15889 1.1452 174.8 22.3 .596 167
2022 11 27 09  04 20 36.244   +25 51 10.12  .15896 1.1452 174.8 22.3 .607 167
2022 11 27 10  04 20 41.568   +25 52 26.20  .15903 1.1453 174.8 22.3 .619 168
2022 11 27 11  04 20 46.888   +25 53 42.18  .15910 1.1454 174.8 22.3 .630 169
2022 11 27 12  04 20 52.205   +25 54 58.07  .15917 1.1454 174.8 22.3 .642 169
2022 11 27 13  04 20 57.519   +25 56 13.85  .15924 1.1455 174.8 22.3 .654 170
2022 11 27 14  04 21 02.829   +25 57 29.54  .15931 1.1455 174.8 22.3 .667 171
2022 11 27 15  04 21 08.136   +25 58 45.12  .15938 1.1456 174.8 22.3 .679 171
2022 11 27 16  04 21 13.440   +26 00 00.61  .15945 1.1457 174.7 22.3 .692 172
2022 11 27 17  04 21 18.741   +26 01 16.00  .15952 1.1457 174.7 22.3 .704 173
2022 11 27 18  04 21 24.038   +26 02 31.29  .15959 1.1458 174.7 22.3 .717 173
2022 11 27 19  04 21 29.333   +26 03 46.48  .15966 1.1458 174.7 22.3 .731 174
2022 11 27 20  04 21 34.624   +26 05 01.57  .15973 1.1459 174.7 22.3 .744 175
2022 11 27 21  04 21 39.911   +26 06 16.56  .15981 1.1460 174.7 22.3 .758 175
2022 11 27 22  04 21 45.196   +26 07 31.45  .15988 1.1460 174.7 22.3 .771 176
2022 11 27 23  04 21 50.477   +26 08 46.24  .15995 1.1461 174.7 22.4 .785 177
2022 11 28 00  04 21 55.755   +26 10 00.93  .16002 1.1462 174.7 22.4 .799 177
2022 11 28 01  04 22 01.030   +26 11 15.52  .16009 1.1462 174.7 22.4 .814 178
2022 11 28 02  04 22 06.301   +26 12 30.01  .16017 1.1463 174.7 22.4 .828 179
2022 11 28 03  04 22 11.569   +26 13 44.40  .16024 1.1464 174.7 22.4 .843 179
2022 11 28 04  04 22 16.834   +26 14 58.70  .16031 1.1464 174.7 22.4 .858   0
2022 11 28 05  04 22 22.096   +26 16 12.89  .16039 1.1465 174.7 22.4 .873   0
2022 11 28 06  04 22 27.355   +26 17 26.98  .16046 1.1465 174.7 22.4 .889   1
2022 11 28 07  04 22 32.610   +26 18 40.96  .16053 1.1466 174.7 22.4 .904   2
2022 11 28 08  04 22 37.862   +26 19 54.85  .16061 1.1467 174.7 22.4 .920   2
2022 11 28 09  04 22 43.111   +26 21 08.64  .16068 1.1467 174.7 22.4 .936   3
2022 11 28 10  04 22 48.356   +26 22 22.33  .16075 1.1468 174.7 22.4 .952   3
2022 11 28 11  04 22 53.598   +26 23 35.92  .16083 1.1469 174.6 22.4 .969   4
2022 11 28 12  04 22 58.837   +26 24 49.40  .16090 1.1469 174.6 22.4 .985   5
2022 11 28 13  04 23 04.073   +26 26 02.79  .16098 1.1470 174.6 22.4 1.00   5
2022 11 28 14  04 23 09.305   +26 27 16.07  .16105 1.1471 174.6 22.4 1.02   6
2022 11 28 15  04 23 14.535   +26 28 29.25  .16113 1.1471 174.6 22.4 1.04   6
2022 11 28 16  04 23 19.761   +26 29 42.33  .16120 1.1472 174.6 22.4 1.05   7
2022 11 28 17  04 23 24.983   +26 30 55.31  .16128 1.1473 174.6 22.4 1.07   7
2022 11 28 18  04 23 30.203   +26 32 08.19  .16135 1.1473 174.6 22.4 1.09   8
2022 11 28 19  04 23 35.419   +26 33 20.97  .16143 1.1474 174.6 22.4 1.11   8
2022 11 28 20  04 23 40.632   +26 34 33.65  .16150 1.1475 174.6 22.4 1.13   9
2022 11 28 21  04 23 45.842   +26 35 46.22  .16158 1.1475 174.6 22.4 1.14  10
2022 11 28 22  04 23 51.048   +26 36 58.69  .16165 1.1476 174.6 22.4 1.16  10